EW4337 Weather Reports


Display with metric or nautical units.
time (UTC)temp
F
wind
direction
speed
MPH
gust
MPH
rain 1hr
in
rain 24hr
in
rain mn
in
humidity
%
barometer
mb
20260505124704 54 16 5.0 9.0 0.00 0.00 0.00 77 1010.7
20260505123704 54 52 5.0 13.0 0.00 0.00 0.00 78 1010.7
20260505123204 54 42 6.0 10.0 0.00 0.00 0.00 77 1010.7
20260505122704 54 38 7.0 12.0 0.00 0.00 0.00 76 1010.7
20260505122204 54 30 6.0 12.0 0.00 0.00 0.00 77 1010.7
20260505121204 54 34 3.0 12.0 0.00 0.00 0.00 77 1010.7
20260505120204 54 17 3.0 9.0 0.00 0.00 0.00 77 1010.6
20260505115704 54 53 3.0 12.0 0.00 0.00 0.00 76 1010.7
20260505115204 54 47 4.0 9.0 0.00 0.00 0.00 76 1010.7
20260505114704 54 354 4.0 12.0 0.00 0.00 0.00 76 1010.7
20260505114202 54 50 5.0 10.0 0.00 0.00 0.00 76 1010.7
20260505113702 54 43 2.0 12.0 0.00 0.00 0.00 76 1010.8
20260505113202 54 38 5.0 12.0 0.00 0.00 0.00 76 1010.9
20260505112203 54 48 3.0 13.0 0.00 0.00 0.00 75 1010.8
20260505111702 54 46 5.0 12.0 0.00 0.00 0.00 74 1010.8
20260505111202 55 52 6.0 10.0 0.00 0.00 0.00 74 1010.9
20260505110703 54 34 3.0 8.0 0.00 0.00 0.00 75 1010.9
20260505110202 53 30 5.0 10.0 0.00 0.00 0.00 75 1010.9
20260505102203 55 358 5.0 10.0 0.00 0.00 0.00 72 1011.1
20260505101702 56 31 2.0 9.0 0.00 0.00 0.00 70 1011.1
20260505100704 56 47 5.0 14.0 0.00 0.00 0.00 72 1010.9
20260505100202 54 351 3.0 12.0 0.00 0.00 0.00 75 1010.9
20260505095702 53 36 7.0 13.0 0.00 0.00 0.00 76 1011.0
20260505095203 53 349 5.0 10.0 0.00 0.00 0.00 77 1011.0
20260505094703 52 6 5.0 12.0 0.00 0.00 0.00 77 1011.0
20260505093703 53 354 4.0 10.0 0.00 0.00 0.00 78 1011.2
20260505093203 52 12 2.0 9.0 0.00 0.00 0.00 78 1011.2
20260505092703 52 340 7.0 12.0 0.00 0.00 0.00 79 1011.2
20260505092203 52 0 4.0 10.0 0.00 0.00 0.00 79 1011.2
20260505091703 51 16 4.0 12.0 0.00 0.00 0.00 80 1011.2
20260505091203 51 26 4.0 12.0 0.00 0.00 0.00 80 1011.2
20260505090703 51 352 4.0 12.0 0.00 0.00 0.00 80 1011.3
20260505085703 51 14 4.0 8.0 0.00 0.00 0.00 83 1011.4
20260505085202 51 10 2.0 5.0 0.00 0.00 0.00 83 1011.4
20260505084702 51 19 3.0 12.0 0.00 0.00 0.00 83 1011.4
20260505083703 50 13 5.0 9.0 0.00 0.00 0.00 84 1011.4
20260505083203 50 7 3.0 10.0 0.00 0.00 0.00 85 1011.5
20260505082704 50 28 3.0 8.0 0.00 0.00 0.00 85 1011.6
20260505082203 50 9 3.0 8.0 0.00 0.00 0.00 86 1011.7
20260505081703 50 8 2.0 6.0 0.00 0.00 0.00 86 1011.7
20260505081203 49 37 4.0 10.0 0.00 0.00 0.00 87 1011.8
20260505080703 49 51 6.0 9.0 0.00 0.00 0.00 87 1011.8
20260505080203 49 49 5.0 9.0 0.00 0.00 0.00 87 1011.9
20260505075703 49 47 5.0 10.0 0.00 0.00 0.00 87 1011.9
20260505075203 49 49 3.0 10.0 0.00 0.00 0.00 87 1011.9
20260505074703 49 37 5.0 12.0 0.00 0.00 0.00 87 1011.8
20260505073205 49 26 5.0 8.0 0.00 0.00 0.00 88 1011.7
20260505072703 49 38 3.0 9.0 0.00 0.00 0.00 89 1011.7
20260505072203 49 43 3.0 9.0 0.00 0.00 0.00 89 1011.7
20260505071203 49 30 2.0 9.0 0.00 0.00 0.00 90 1011.6
20260505070703 49 10 3.0 8.0 0.00 0.00 0.00 90 1011.6
20260505065703 48 21 3.0 9.0 0.00 0.00 0.00 91 1011.7
20260505065203 48 12 2.0 9.0 0.00 0.00 0.00 91 1011.7
20260505064703 48 34 4.0 10.0 0.00 0.00 0.00 91 1011.7
20260505064204 48 53 0.0 7.0 0.00 0.00 0.00 91 1011.7
20260505063204 48 34 1.0 6.0 0.00 0.00 0.00 91 1011.7
20260505062703 48 18 3.0 8.0 0.00 0.00 0.00 91 1011.8
20260505062204 48 46 3.0 6.0 0.00 0.00 0.00 90 1011.7
20260505061703 48 29 3.0 6.0 0.00 0.00 0.00 90 1011.8
20260505061203 48 14 1.0 8.0 0.00 0.00 0.00 90 1011.7
20260505060703 48 27 2.0 8.0 0.00 0.00 0.00 90 1011.7
20260505060204 48 33 4.0 9.0 0.00 0.00 0.00 90 1011.6
20260505055704 48 353 2.0 8.0 0.00 0.00 0.00 89 1011.7
20260505055204 48 16 2.0 6.0 0.00 0.00 0.00 89 1011.6
20260505054704 49 44 3.0 12.0 0.00 0.00 0.00 89 1011.6
20260505053704 49 3 2.0 6.0 0.00 0.00 0.00 88 1011.6
20260505053204 49 35 3.0 7.0 0.00 0.00 0.00 88 1011.6
20260505052204 49 35 5.0 10.0 0.00 0.00 0.00 88 1011.6
20260505051704 49 28 3.0 10.0 0.00 0.00 0.00 88 1011.6
20260505051203 49 31 2.0 8.0 0.00 0.00 0.00 88 1011.6
20260505050705 49 9 4.0 10.0 0.00 0.00 0.00 88 1011.6
20260505041703 49 25 3.0 8.0 0.00 0.00 0.00 87 1011.4
20260505041204 49 17 3.0 7.0 0.00 0.00 0.00 87 1011.4
20260505040203 49 12 2.0 6.0 0.00 0.00 0.00 87 1011.4
20260505035704 49 30 2.0 5.0 0.00 0.00 0.00 88 1011.4
20260505035203 49 50 3.0 8.0 0.00 0.00 0.00 87 1011.4
20260505034703 49 26 3.0 10.0 0.00 0.00 0.00 87 1011.4
20260505034203 49 10 2.0 8.0 0.00 0.00 0.00 88 1011.4
20260505033704 49 27 3.0 10.0 0.00 0.00 0.00 87 1011.4
20260505033203 49 19 2.0 5.0 0.00 0.00 0.00 88 1011.4
20260505032703 49 36 4.0 9.0 0.00 0.00 0.00 87 1011.4
20260505032203 49 40 2.0 6.0 0.00 0.00 0.00 88 1011.5
20260505031703 49 35 2.0 8.0 0.00 0.00 0.00 88 1011.4
20260505031203 49 24 3.0 8.0 0.00 0.00 0.00 88 1011.5
20260505030703 49 7 3.0 9.0 0.00 0.00 0.00 88 1011.5
20260505030204 49 31 3.0 8.0 0.00 0.00 0.00 88 1011.5
20260505024703 49 25 1.0 8.0 0.00 0.00 0.00 88 1011.6
20260505024203 49 5 1.0 5.0 0.00 0.00 0.00 88 1011.7
20260505023703 49 10 4.0 9.0 0.00 0.00 0.00 88 1011.7
20260505023204 49 358 1.0 6.0 0.00 0.00 0.00 88 1011.8
20260505021703 49 353 3.0 6.0 0.00 0.00 0.00 89 1011.9
20260505021203 49 350 4.0 9.0 0.00 0.00 0.00 89 1011.9
20260505020704 49 345 2.0 6.0 0.00 0.00 0.00 89 1011.9
20260505020203 49 7 5.0 10.0 0.00 0.00 0.00 89 1012.0
20260505015203 49 345 3.0 5.0 0.00 0.00 0.00 89 1012.0
20260505014703 49 349 2.0 8.0 0.00 0.00 0.00 89 1012.1
20260505014204 49 351 3.0 8.0 0.00 0.00 0.00 89 1012.0
20260505013203 49 337 3.0 8.0 0.00 0.00 0.00 89 1012.1
20260505012704 49 3 5.0 9.0 0.00 0.00 0.00 89 1012.2
20260505012203 49 357 3.0 8.0 0.00 0.00 0.00 89 1012.2
20260505011704 49 333 3.0 8.0 0.00 0.00 0.00 89 1012.2
20260505011203 49 343 3.0 6.0 0.00 0.00 0.00 89 1012.2
20260505010704 49 354 3.0 8.0 0.00 0.00 0.00 89 1012.2
20260505010203 49 18 1.0 8.0 0.00 0.00 0.00 89 1012.2
20260505005704 49 1 2.0 12.0 0.00 0.00 0.00 89 1012.2
20260505005204 49 26 5.0 9.0 0.00 0.00 0.00 89 1012.2
20260505004204 49 16 4.0 8.0 0.00 0.00 0.00 89 1012.2
20260505003703 49 14 6.0 12.0 0.00 0.00 0.00 89 1012.2
20260505003204 49 3 3.0 8.0 0.00 0.00 0.00 89 1012.2
20260505002704 49 25 6.0 12.0 0.00 0.00 0.00 89 1012.2
20260505002204 49 28 3.0 9.0 0.00 0.00 0.00 88 1012.2
20260505001704 49 17 4.0 8.0 0.00 0.00 0.00 88 1012.3
20260505001204 50 4 4.0 10.0 0.00 0.00 0.00 88 1012.4
20260505000204 50 7 5.0 9.0 0.00 0.00 0.00 88 1012.4
20260504235704 50 1 3.0 7.0 0.00 0.00 0.00 88 1012.4
20260504234705 50 356 3.0 9.0 0.00 0.00 0.00 88 1012.4
20260504233705 50 24 2.0 6.0 0.00 0.00 0.00 88 1012.5
20260504233204 50 4 2.0 6.0 0.00 0.00 0.00 88 1012.5
20260504232704 50 345 3.0 9.0 0.00 0.00 0.00 88 1012.6
20260504232204 50 340 3.0 9.0 0.00 0.00 0.00 88 1012.6
20260504231704 50 4 3.0 8.0 0.00 0.00 0.00 88 1012.6
20260504231204 50 13 4.0 9.0 0.00 0.00 0.00 88 1012.7
20260504230704 50 339 3.0 7.0 0.00 0.00 0.00 88 1012.7
20260504230204 50 333 4.0 8.0 0.00 0.00 0.00 88 1012.7
20260504224704 50 358 2.0 6.0 0.00 0.00 0.00 87 1013.0
20260504224204 50 351 4.0 9.0 0.00 0.00 0.00 87 1013.0
20260504223704 50 16 3.0 8.0 0.00 0.00 0.00 87 1013.1
20260504223204 50 7 3.0 8.0 0.00 0.00 0.00 87 1013.1
20260504222704 50 349 4.0 9.0 0.00 0.00 0.00 87 1013.0
20260504222204 50 14 2.0 9.0 0.00 0.00 0.00 87 1013.0
20260504221704 50 340 3.0 8.0 0.00 0.00 0.00 87 1013.0
20260504221204 50 4 3.0 9.0 0.00 0.00 0.00 87 1013.1
20260504220204 50 325 5.0 8.0 0.00 0.00 0.00 87 1013.2
20260504215703 50 316 4.0 12.0 0.00 0.00 0.00 87 1013.2
20260504214704 50 11 3.0 9.0 0.00 0.00 0.00 87 1013.3
20260504213703 50 355 3.0 8.0 0.00 0.00 0.00 87 1013.3
20260504213203 50 0 5.0 9.0 0.00 0.00 0.00 88 1013.3
20260504212703 50 348 2.0 6.0 0.00 0.00 0.00 88 1013.4
20260504211704 51 346 2.0 8.0 0.00 0.00 0.00 88 1013.5
20260504210203 51 341 3.0 5.0 0.00 0.00 0.00 88 1013.3
20260504205703 51 318 3.0 8.0 0.00 0.00 0.00 88 1013.3
20260504205204 51 334 3.0 8.0 0.00 0.00 0.00 88 1013.3
20260504204704 51 343 3.0 9.0 0.00 0.00 0.00 88 1013.3
20260504203703 51 358 4.0 9.0 0.00 0.00 0.00 88 1013.3
20260504203204 51 337 2.0 8.0 0.00 0.00 0.00 88 1013.3
20260504202705 51 337 3.0 8.0 0.00 0.00 0.00 88 1013.3
20260504202203 51 355 4.0 8.0 0.00 0.00 0.00 88 1013.3
20260504201703 51 339 3.0 8.0 0.00 0.00 0.00 87 1013.3
20260504201204 51 8 4.0 9.0 0.00 0.00 0.00 87 1013.3
20260504200704 52 357 3.0 9.0 0.00 0.00 0.00 87 1013.3
20260504200203 52 344 3.0 7.0 0.00 0.00 0.00 87 1013.2
20260504194203 52 28 2.0 5.0 0.00 0.00 0.00 87 1013.1
20260504193703 52 353 3.0 8.0 0.00 0.00 0.00 87 1013.0
20260504193204 52 351 3.0 8.0 0.00 0.00 0.00 87 1012.9
20260504192704 52 22 3.0 10.0 0.00 0.00 0.00 87 1013.0
20260504192205 52 10 3.0 6.0 0.00 0.00 0.00 87 1012.9
20260504191704 52 358 4.0 10.0 0.00 0.00 0.00 87 1012.8
20260504191203 52 355 3.0 9.0 0.00 0.00 0.00 87 1012.9
20260504190704 53 345 4.0 9.0 0.00 0.00 0.00 87 1012.8
20260504185703 53 330 2.0 10.0 0.00 0.00 0.00 87 1012.9
20260504185204 53 354 4.0 10.0 0.00 0.00 0.00 87 1012.8
20260504184704 53 340 4.0 10.0 0.00 0.00 0.00 86 1012.8
20260504184204 53 15 3.0 13.0 0.00 0.00 0.00 86 1012.8
20260504183204 54 336 3.0 10.0 0.00 0.00 0.00 86 1012.7
20260504182704 54 353 5.0 10.0 0.00 0.00 0.00 86 1012.7
20260504182204 54 10 3.0 8.0 0.00 0.00 0.00 86 1012.7
20260504181704 54 8 5.0 10.0 0.00 0.00 0.00 86 1012.6
20260504181204 54 353 5.0 9.0 0.00 0.00 0.00 86 1012.5
20260504180704 54 339 5.0 13.0 0.00 0.00 0.00 86 1012.5
20260504180204 55 5 7.0 12.0 0.00 0.00 0.00 86 1012.5
20260504175704 55 11 5.0 12.0 0.00 0.00 0.00 86 1012.5
20260504175204 55 333 5.0 12.0 0.00 0.00 0.00 86 1012.5
20260504174704 56 346 8.0 14.0 0.00 0.00 0.00 85 1012.4
20260504174204 56 325 9.0 12.0 0.00 0.00 0.00 85 1012.4
20260504173705 57 346 6.0 12.0 0.00 0.00 0.00 85 1012.4
20260504172702 57 317 4.0 9.0 0.00 0.00 0.00 85 1012.4
20260504172202 58 332 7.0 13.0 0.00 0.00 0.00 85 1012.3
20260504171702 58 338 4.0 12.0 0.00 0.00 0.00 85 1012.3
20260504171203 58 329 4.0 10.0 0.00 0.00 0.00 84 1012.3
20260504170702 58 349 3.0 8.0 0.00 0.00 0.00 85 1012.3
20260504170202 58 336 5.0 10.0 0.00 0.00 0.00 85 1012.3
20260504160202 59 357 3.0 10.0 0.00 0.00 0.00 86 1012.3
20260504150702 61 322 4.0 9.0 0.00 0.02 0.00 84 1012.2
20260504150203 61 330 3.0 10.0 0.00 0.02 0.00 84 1012.2
20260504141203 62 53 5.0 8.0 0.00 0.04 0.00 83 1012.4
20260504140703 63 35 3.0 8.0 0.00 0.04 0.00 83 1012.4
20260504140203 63 8 3.0 5.0 0.00 0.04 0.00 83 1012.3